Regional Weather Roundup
Issued by NWS

Home | Current Version | Previous Version | Graphics & Text | Print | Product List | Glossary On
Versions: 1 2 3 4 5 6 7 8 9 10 11 12 13 14 15 16 17 18 19 20 21 22 23 24 25 26 27 28 29 30 31 32 33 34 35 36 37 38 39 40 41 42 43 44 45 46 47 48 49 50
000
ASUS43 KLMK 262310
RWRKY
KENTUCKY REGIONAL WEATHER ROUNDUP
NATIONAL WEATHER SERVICE LOUISVILLE KY
600 PM EST MON JAN 26 2015

NOTE "FAIR" INDICATES FEW OR NO CLOUDS BELOW 12,000 FEET
WITH NO SIGNIFICANT WEATHER AND/OR OBSTRUCTIONS TO VISIBILITY.

KYZ001>023-026-027-061>063-070>075-270000-
WESTERN AND SOUTH CENTRAL KENTUCKY

CITY           SKY/WX    TMP DP  RH WIND       PRES   REMARKS
PADUCAH        CLOUDY    37  29  72 SW6       29.92F WCI  32
HENDERSON      CLOUDY    30  27  86 CALM      29.94S
OWENSBORO      LGT SNOW  29  28  96 SW3       29.96S FOG
HOPKINSVILLE   CLOUDY    36  28  75 SW7       29.93F WCI  30
BOWLING GREEN  LGT SNOW  32  26  78 W5        29.97S WCI  27
GLASGOW        CLOUDY    31  27  86 W5        29.95S WCI  26
$$

KYZ024-025-028>034-038-045-046-053-270000-
NORTH CENTRAL KENTUCKY

CITY           SKY/WX    TMP DP  RH WIND       PRES   REMARKS
LOUISVILLE/SDF CLOUDY    32  23  69 W8        29.95R WCI  25
LOUISVILLE/LOU CLOUDY    31  22  69 NW6       29.95R WCI  25
FORT KNOX      CLOUDY    30  25  81 W7        29.92S WCI  23
$$

KYZ035>037-039>044-047>052-055>060-089>105-270000-
NORTHEAST KENTUCKY

CITY           SKY/WX    TMP DP  RH WIND       PRES   REMARKS
LEXINGTON      CLOUDY    28  21  75 W3        29.92R
COVINGTON      MOCLDY    28  19  69 NW7       29.91R WCI  21
FRANKFORT      CLOUDY    29  20  69 NW5       29.92R WCI  24
$$

KYZ054-064>069-076>088-106>120-270000-
SOUTHEAST KENTUCKY

CITY           SKY/WX    TMP DP  RH WIND       PRES   REMARKS
JACKSON        CLOUDY    26  23  88 W6        29.89R WCI  19
LONDON         CLOUDY    30  22  72 NW8       29.91R WCI  22
SOMERSET       CLOUDY    30  25  80 W8        29.96R WCI  23
MIDDLESBORO    CLOUDY    30  26  83 W6        29.92R WCI  24
MONTICELLO     CLOUDY    31  26  81 W8        29.96R WCI  24
$$



USA.gov is the U.S. government's official web portal to all federal, state and local government web resources and services.